User: anonymous   Login
Location: Lussas
(44.6119°N, 4.4726°E)
Time: 17:34:42
(UTC+00:00)
Language:

PSLV R/B - Orbit

View from above orbital plane
View from above orbital plane
View from above satellite
View from above satellite

Ground track
Ground track

The orbit data is extracted from the following two-line orbital elements,

1 36800U 10035F   21172.59212042 -.00000160  00000-0 -87104-5 0  9998
2 36800  98.1586  10.9803 0021972 176.9876 183.1480 14.94954813595969
Epoch (UTC): 21 June 2021 14:12:39
Eccentricity: 0.0021972
inclination: 98.1586°
perigee height: 567 km
apogee height: 598 km
right ascension of ascending node: 10.9803°
argument of perigee: 176.9876°
revolutions per day: 14.94954813
mean anomaly at epoch: 183.1480°
orbit number at epoch: 59596

The dashed part of the orbit path shows where the satellite is in the earth's shadow,  

DLR